Location: ???????
(56.2167°N, 38.0500°E)
Time: 18:11:18
(UTC+00:00)

ATLAS 3B R/B - Pass Details

Date: 19 May 2025
Orbit: 935 x 1258 km, 63.8° (Epoch: 20 June)

Event Time Altitude Azimuth Distance (km) Brightness Sun altitude
Exits shadow 19:42:57 14° 158° (SSE) 2,837 4.2 -10.9°
Maximum altitude 19:47:51 26° 111° (ESE) 2,191 4.0 -11.1°
Drops below altitude 10° 19:53:58 10° 60° (ENE) 3,228 5.3 -11.5°
Sets 19:57:18 0° 48° (NE) 4,216 6.1 -11.6°
